If you wish to contribute or participate in the discussions about articles you are invited to join SKYbrary as a registered user

 Actions

Châlons-Vatry Air Base

From SKYbrary Wiki

LFOK
Airport
ICAO: LFOK – IATA: XCR
Summary
Name Châlons-Vatry Air Base
Region Europe
Territory France FR.gif
Location , Champagne-Ardenne
Serving Chalons
Elevation 178.918 m
587 ft
587 ft178.918 m
Type medium airport
Coordinates 48° 46' 33.86" N, 4° 11' 4.17" E
Runways
Designator Length Width Surface ROPS
10/28 3860 m12,664.042 ft
45 m147.638 ft
CON yes/yes


METAR
Observation LFOK 210030Z AUTO 08008KT CAVOK 11/03 Q1018 NOSIG
Station Chalons-Vatry
Date/Time 21 September 2019 00:30:00
Wind direction 80°
Wind speed 08 kts
Lowest cloud amount clouds and visibility OK
Temperature 11°C
Dew point 3°C
Humidity 57%
QNH 1018 hPa
Weather condition n/a